This is the latest recevied weather packets stored in our database for station/object KY0TEQ-13. If no packets are shown the sender has not sent any weather packets the latest 10 day(s).
| Time | Temp. | Humidity | Pressure | Rain* | Wind** | Luminosity | Snow |
|---|---|---|---|---|---|---|---|
| 1777431492 | 7.22° C | 30% | 1304.1 hPa | 0 mm | - | 0 W/m² | - |
| 1777431188 | 7.78° C | 26% | 1304 hPa | 0 mm | - | 0 W/m² | - |
| 1777430884 | 6.11° C | 30% | 1303.8 hPa | 0 mm | - | 0 W/m² | - |
| 1777430581 | 6.11° C | 33% | 1303.9 hPa | 0 mm | - | 0 W/m² | - |
| 1777430275 | 7.22° C | 29% | 1303.7 hPa | 0 mm | - | 0 W/m² | - |
| 1777429970 | 6.67° C | 30% | 1303.7 hPa | 0 mm | - | 0 W/m² | - |
| 1777429668 | 6.67° C | 32% | 1303.7 hPa | 0 mm | - | 0 W/m² | - |
| 1777429363 | 7.22° C | 32% | 1303.5 hPa | 0 mm | - | 0 W/m² | - |
| 1777429059 | 8.33° C | 27% | 1303.3 hPa | 0 mm | - | 0 W/m² | - |
| 1777428756 | 8.33° C | 27% | 1303.4 hPa | 0 mm | - | 0 W/m² | - |
| 1777428451 | 8.89° C | 25% | 1303.5 hPa | 0 mm | - | 1 W/m² | - |
| 1777428147 | 10° C | 23% | 1303.4 hPa | 0 mm | - | 2 W/m² | - |
| 1777427843 | 10° C | 23% | 1303.5 hPa | 0 mm | - | 3 W/m² | - |
| 1777427540 | 10.56° C | 22% | 1303.4 hPa | 0 mm | - | 5 W/m² | - |
| 1777427236 | 11.67° C | 20% | 1303.3 hPa | 0 mm | - | 8 W/m² | - |
| 1777426934 | 11.67° C | 18% | 1303.3 hPa | 0 mm | - | 10 W/m² | - |
| 1777426631 | 11.67° C | 19% | 1303.2 hPa | 0 mm | - | 13 W/m² | - |
| 1777426327 | 11.67° C | 18% | 1303.2 hPa | 0 mm | - | 15 W/m² | - |
| 1777426022 | 12.22° C | 18% | 1303.2 hPa | 0 mm | - | 18 W/m² | - |
| 1777425717 | 12.78° C | 17% | 1303 hPa | 0 mm | - | 20 W/m² | - |
| 1777425412 | 13.33° C | 16% | 1303 hPa | 0 mm | - | 23 W/m² | - |
| 1777425109 | 13.33° C | 17% | 1303.2 hPa | 0 mm | - | 28 W/m² | - |
| 1777424805 | 13.33° C | 15% | 1303.2 hPa | 0 mm | - | 43 W/m² | - |
| 1777424500 | 13.89° C | 15% | 1303.2 hPa | 0 mm | - | 52 W/m² | - |
| 1777424196 | 14.44° C | 14% | 1303.2 hPa | 0 mm | - | 61 W/m² | - |
* Rain latest hour (hover to see other rain measurements)
** Current wind speed in m/s (hover to see current wind gust speed)